Laramie, WY

9:07 PM MDT on April 19, 2018 (GMT -0600)
Laramie Regional

Weather History for KLAR - August, 2012

Change the Weather History Date:

Friday, August 24, 2012

  Actual Average Record
Temperature  
Mean Temperature 65 °F 61 °F  
Max Temperature 84 °F 77 °F 89 °F (2011)
Min Temperature 46 °F 45 °F 32 °F (1962)
Degree Days  
Heating Degree Days 0 4  
Month to date heating degree days 38 66  
Since 1 June heating degree days 132 376  
Since 1 July heating degree days 50 135  
Cooling Degree Days 0 0  
Month to date cooling degree days 34 17  
Year to date cooling degree days 202 64  
Since 1 June cooling degree days 202 64  
Growing Degree Days 14 (Base 50)    
Moisture  
Dew Point 35 °F    
Average Humidity 50    
Maximum Humidity 86    
Minimum Humidity 13    
Precipitation  
Precipitation 0.00 in 0.03 in 2.28 in (1958)
Month to date precipitation 0.32 0.98  
Year to date precipitation 4.40 7.90  
Sea Level Pressure  
Sea Level Pressure 29.77 in    
Wind  
Wind Speed 10 mph (West)    
Max Wind Speed 36 mph    
Max Gust Speed 45 mph    
Visibility 10 miles    
Events      
T = Trace of Precipitation, MM = Missing Value Source: NWS Daily Summary

Daily Weather History Graph

Daily Weather History Graph

Search for Another Location

Airport or City:

Astronomy

Aug. 24, 2012 Rise Set
Actual Time 6:21 AM MDT 7:47 PM MDT
Civil Twilight 5:52 AM MDT 8:16 PM MDT
Nautical Twilight 5:17 AM MDT 8:50 PM MDT
Astronomical Twilight 4:40 AM MDT 9:27 PM MDT
Moon 2:22 PM MDT (8/24) No Moon Set
Length of Visible Light 14h 23m
Length of Day
13h 25m
First Quarter, 52% of the Moon is Illuminated
Aug 24
First Quarter
Aug 31
Full
Sep 8
Last Quarter
Sep 15
New
Sep 22
First Quarter

Hourly Weather History & Observations

Time (MDT) Temp. Dew Point Humidity Pressure Visibility Wind Dir Wind Speed Gust Speed Precip Events Conditions
12:53 AM 55.0 °F 46.0 °F 72% 29.77 in 10.0 mi South 9.2 mph - N/A   Clear
1:53 AM 55.0 °F 46.0 °F 72% 29.75 in 10.0 mi South 8.1 mph - N/A   Clear
2:53 AM 50.0 °F 44.1 °F 80% 29.77 in 10.0 mi SSE 9.2 mph - N/A   Clear
3:53 AM 50.0 °F 44.1 °F 80% 29.78 in 10.0 mi South 5.8 mph - N/A   Clear
4:53 AM 48.0 °F 43.0 °F 83% 29.77 in 10.0 mi SSE 9.2 mph - N/A   Clear
5:53 AM 46.9 °F 43.0 °F 86% 29.79 in 10.0 mi SSE 5.8 mph - N/A   Clear
6:53 AM 48.0 °F 43.0 °F 83% 29.82 in 10.0 mi SSE 5.8 mph - N/A   Clear
7:53 AM 53.1 °F 44.1 °F 71% 29.82 in 10.0 mi Calm Calm - N/A   Clear
8:53 AM 61.0 °F 43.0 °F 52% 29.81 in 10.0 mi WSW 3.5 mph - N/A   Clear
9:53 AM 69.1 °F 39.9 °F 35% 29.78 in 10.0 mi Calm Calm - N/A   Clear
10:53 AM 75.0 °F 37.9 °F 26% 29.75 in 10.0 mi NNW 10.4 mph - N/A   Clear
11:53 AM 78.1 °F 35.1 °F 21% 29.73 in 10.0 mi NNW 10.4 mph 21.9 mph N/A   Clear
12:53 PM 80.1 °F 33.1 °F 18% 29.71 in 10.0 mi North 15.0 mph 24.2 mph N/A   Clear
1:39 PM 80.6 °F 32.0 °F 17% 30.06 in 10.0 mi WNW 9.2 mph 21.9 mph N/A   Partly Cloudy
1:53 PM 82.9 °F 32.0 °F 16% 29.69 in 10.0 mi NW 13.8 mph 25.3 mph N/A   Mostly Cloudy
2:53 PM 80.1 °F 33.1 °F 18% 29.71 in 10.0 mi NW 11.5 mph 26.5 mph N/A   Partly Cloudy
3:53 PM 80.1 °F 28.9 °F 15% 29.70 in 10.0 mi NNW 17.3 mph - N/A   Partly Cloudy
4:53 PM 82.0 °F 28.0 °F 14% 29.69 in 10.0 mi NW 11.5 mph - N/A   Clear
5:53 PM 77.0 °F 26.1 °F 15% 29.70 in 10.0 mi NW 29.9 mph 38.0 mph N/A   Clear
6:53 PM 78.1 °F 24.1 °F 14% 29.71 in 10.0 mi WNW 10.4 mph - N/A   Clear
7:30 PM 75.2 °F 28.4 °F 18% 30.03 in 10.0 mi NNW 9.2 mph - N/A   Scattered Clouds
7:53 PM 70.0 °F 28.9 °F 22% 29.73 in 10.0 mi NW 8.1 mph - N/A   Partly Cloudy
8:53 PM 62.1 °F 28.9 °F 29% 29.74 in 10.0 mi NW 8.1 mph - N/A   Clear
9:53 PM 61.0 °F 27.0 °F 27% 29.73 in 10.0 mi WSW 4.6 mph - N/A   Clear
10:53 PM 59.0 °F 28.0 °F 31% 29.72 in 10.0 mi WSW 8.1 mph - N/A   Clear
11:53 PM 63.0 °F 28.0 °F 27% 29.70 in 10.0 mi West 13.8 mph - N/A   Clear